[Iaude] MPEC T111: 2023 TN3 [a=1.06,e=0.09,i=4.2,H=27.4]
    mpec at marsden.cfa.harvard.edu 
    mpec at marsden.cfa.harvard.edu
       
    Sun Oct  8 19:41:12 EDT 2023
    
    
  
M.P.E.C. 2023-T111                              Issued 2023 October 8, 23:39 UT
     The Minor Planet Electronic Circulars contain information on unusual
         minor planets, routine data on comets and natural satellites,
         and occasional editorial announcements.  They are published
    on behalf of Division F of the International Astronomical Union by the
          Minor Planet Center, Smithsonian Astrophysical Observatory,
                          Cambridge, MA 02138, U.S.A.
			  
             Prepared using the Tamkin Foundation Computer Network
                              MPC at CFA.HARVARD.EDU
            URL https://www.minorplanetcenter.net/    ISSN 1523-6714
                                    2023 TN3                                    
Observations:
     K23T03N* C2023 10 08.39538 03 08 41.60 +03 02 09.9          19.38RUET111I41
     K23T03N  C2023 10 08.39572 03 08 41.06 +03 02 18.7          19.38RUET111I41
     K23T03N  C2023 10 08.44247 03 07 31.94 +03 20 48.8          19.05RUET111I41
     K23T03N  C2023 10 08.44282 03 07 31.47 +03 20 57.2          19.05RUET111I41
     K23T03N  C2023 10 08.49699203 06 07.706+03 41 56.34         18.5 GVET111H01
     K23T03N  C2023 10 08.50036603 06 03.023+03 43 14.58         18.4 GVET111H01
     K23T03N KC2023 10 08.50198203 06 02.210+03 44 10.46         18.61GVET111I52
     K23T03N KC2023 10 08.50295303 06 00.853+03 44 33.11         18.80GVET111I52
     K23T03N KC2023 10 08.50392203 05 59.485+03 44 55.43         18.86GVET111I52
     K23T03N KC2023 10 08.50488903 05 58.135+03 45 17.89         18.74GVET111I52
     K23T03N  C2023 10 08.50757503 05 53.040+03 46 01.82         18.6 GVET111H01
     K23T03N  C2023 10 08.51128603 05 47.923+03 47 27.91         19.0 GVET111H01
     K23T03N KC2023 10 08.56742803 05 18.63 +04 24 11.8          19.1 GVET111474
     K23T03N KC2023 10 08.56919203 05 16.13 +04 24 52.8          19.3 GVET111474
     K23T03N KC2023 10 08.57095603 05 13.66 +04 25 33.6          19.1 GVET111474
     K23T03N KC2023 10 08.57272003 05 11.17 +04 26 14.6          19.0 GVET111474
     K23T03N KC2023 10 08.57448703 05 08.72 +04 26 55.1          19.2 GVET111474
     K23T03N KB2023 10 08.89079502 59 24.21 +06 08 13.5          18.7 GVET111I93
     K23T03N KC2023 10 08.89262 02 59 19.13 +06 09 06.9          19.5 GVET111104
     K23T03N KB2023 10 08.89493502 59 19.14 +06 09 45.0          19.2 GVET111I93
     K23T03N KB2023 10 08.89906802 59 14.07 +06 11 15.9          18.7 GVET111I93
     K23T03N KC2023 10 08.89951 02 59 10.43 +06 11 39.1          19.5 GVET111104
     K23T03N KC2023 10 08.89980 02 59 03.90 +06 11 28.5          19.1 VqET111L04
     K23T03N KC2023 10 08.90380 02 58 58.77 +06 12 56.4          19.3 VqET111L04
     K23T03N KC2023 10 08.90640 02 59 01.72 +06 14 10.0          19.6 GVET111104
     K23T03N KC2023 10 08.90777 02 58 53.59 +06 14 24.0          19.2 VqET111L04
     K23T03N KC2023 10 08.92900502 58 31.05 +06 22 16.4          19.2 GVET111L01
     K23T03N KC2023 10 08.92999402 58 29.79 +06 22 37.9          19.7 GVET111L01
     K23T03N KC2023 10 08.93110802 58 28.37 +06 23 01.9          19.6 GVET111L01
     K23T03N KC2023 10 08.96201302 57 52.675+06 33 12.17         18.9 GVET111J95
     K23T03N KC2023 10 08.96471302 57 49.289+06 34 10.63         18.6 GVET111J95
     K23T03N KC2023 10 08.96740502 57 45.862+06 35 08.88         18.7 GVET111J95
Observer details:
104 San Marcello Pistoiese.  Observers P. Bacci, M. Maestripieri.  Measurer P.
    Bacci.  0.60-m f/4.0 reflector + CCD.
474 Mount John Observatory, Lake Tekapo.  Observers A. C. Gilmore, P. M.
    Kilmartin.  Measurer P. M. Kilmartin.  0.6-m f/6.2 reflector + CCD.
H01 Magdalena Ridge Observatory, Socorro.  Observers W. H. Ryan, E. V. Ryan.
    Measurer W. H. Ryan.  2.4-m f/8.9 Ritchey-Chretien + CCD.
I41 Palomar Mountain--ZTF.  Observers K. Venkataramani, T. Prince, G. Helou,
    Q.-Z. Ye, D. Kulkarni, V. Swain, C. Y. Hsu, Y. Cheng, T. Batra.  Measurers
    F. Masci, D. Shupe, K. Venkataramani, Q.-Z. Ye.  1.2-m f/2.44 Oschin-
    Schmidt + CCD.
I52 Steward Observatory, Mt. Lemmon Station.  Observer J. B. Fazekas.
    Measurers E. C. Beshore, D. Fay, J. B. Fazekas, D. C. Fuls, A. R. Gibbs,
    A. D. Grauer, H. Groeller, J. K. Hogan, R. A. Kowalski, S. M. Larson, G.
    J. Leonard, D. Rankin, R. L. Seaman, F. C. Shelly, K. W. Wierzchos.  1.0-m
    prime focus + CCD.
I93 St Pardon de Conques.  Observer F. Losse.  0.40-m f/3.7 reflector + CMO.
J95 Great Shefford.  Observer P. Birtwhistle.  0.41-m f/6.3 Schmidt-Cassegrain
    + CCD.
L01 Visnjan Observatory, Tican.  Observer K. Korlevic.  1.0-m f/2.9 reflector
    + CCD.
L04 ROASTERR-1 Observatory, Cluj-Napoca.  Observer L. Hudin.  0.3-m f/5
    reflector + CCD.
Orbital elements:
2023 TN3                                                 Earth MOID = 0.0088 AU
Epoch 2023 Sept. 13.0 TT = JDT 2460200.5                Bell                    
M  32.05386              (2000.0)            P               Q                  
n   0.90571690     Peri.  293.24140     +0.65174712     +0.75811387             
a   1.0579726      Node    17.48864     -0.66618444     +0.58616613             
e   0.0907864      Incl.    4.22012     -0.36252446     +0.28578424             
P   1.09           H   27.48          G   0.15           U   7                  
Residuals in seconds of arc
231008 I41  0.3+  0.1-    231008 H01  0.1-  0.2-    231008 L04  0.3-  0.2-
231008 I41  0.2-  0.6+    231008 474  0.2-  1.2-    231008 L04  0.3+  0.1-
231008 I41  0.1-  0.3+    231008 474  0.4-  1.0-    231008 104  0.0   0.3-
231008 I41  0.6+  0.4+    231008 474  0.2-  0.9-    231008 L04  0.4-  0.5+
231008 H01  0.4-  0.0     231008 474  0.3-  0.6-    231008 L01  0.1-  0.0
231008 H01  0.2-  0.2-    231008 474  0.2+  0.9-    231008 L01  0.2+  0.1-
231008 I52  0.0   0.3-    231008 I93  0.1+  0.3+    231008 L01  0.5+  0.4-
231008 I52  0.1+  0.2-    231008 104  0.1-  0.1-    231008 J95  0.0   0.3+
231008 I52  0.1-  0.4-    231008 I93  0.1-  0.4+    231008 J95  0.3+  0.2+
231008 I52  0.0   0.4-    231008 I93  0.2-  0.2+    231008 J95  0.1-  0.1+
231008 H01  0.1-  0.3-    231008 104  0.3-  0.3+
Ephemeris:
2023 TN3                 a,e,i = 1.06, 0.09, 4                   q = 0.9619
Date    TT    R. A. (2000) Decl.     Delta      r    Elong.  Phase     V
2023 09 08    11 16 21.5 -46 34 29   0.05572 0.9749    52.6   124.8    26.4
...
2023 09 23    09 58 12.4 -52 10 59   0.02677 0.9898    58.1   120.6    24.5
...
2023 10 01    07 02 32.8 -47 33 47   0.01353 0.9996    81.8    97.4    21.6
...
2023 10 07    03 40 24.0 -07 09 42   0.01092 1.0075   135.3    44.2    19.4
2023 10 08    03 16 58.4 +00 25 50   0.01171 1.0089   143.5    36.1    19.3
2023 10 09    02 56 51.4 +06 54 42   0.01278 1.0102   149.9    29.7    19.3
...
2023 10 15    01 43 07.5 +27 11 15   0.02236 1.0185   160.1    19.5    20.2
...
2023 10 23    01 03 25.9 +34 35 46   0.03830 1.0298   154.4    24.6    21.6
...
2023 11 07    00 43 36.1 +37 00 00   0.07207 1.0516   145.8    32.0    23.2
M. P. C. Staff               (C) Copyright 2023 MPC           M.P.E.C. 2023-T111
    
    
More information about the Iaude
mailing list